Location: Cutler
(25.6150°N, 80.3110°W)
Time: 18:40:50
(UTC-05:00)

Vanguard 2 - Visible Passes

Search period start: 19 February 2018 00:00
Search period end: 01 March 2018 00:00
Orbit: 553 x 2939 km, 32.9° (Epoch: 19 February)

Date Brightness Start Highest point End Pass type
(mag) Time Alt. Az. Time Alt. Az. Time Alt. Az.
19 Feb 8.6 19:43:55 10° W 19:52:18 47° N 19:54:33 33° NE visible
20 Feb 8.5 20:02:40 10° WNW 20:10:39 44° N 20:11:45 41° NNE visible
21 Feb 8.5 20:21:20 10° WNW 20:28:58 46° N 20:28:58 46° N visible
22 Feb 9.2 18:25:57 10° W 18:37:20 56° NNW 18:44:03 10° ENE visible
22 Feb 8.7 20:39:52 10° WNW 20:46:11 45° NNW 20:46:11 45° NNW visible
23 Feb 9.2 18:44:51 10° W 18:55:45 52° N 19:01:57 11° ENE visible
23 Feb 9.1 20:58:17 10° WNW 21:03:24 38° NW 21:03:24 38° NW visible
24 Feb 9.0 19:03:42 10° WNW 19:14:11 52° N 19:19:11 18° ENE visible
24 Feb 9.6 21:16:39 10° WNW 21:20:38 30° WNW 21:20:38 30° WNW visible
25 Feb 8.8 19:22:26 10° WNW 19:32:39 55° N 19:36:25 26° ENE visible
25 Feb 10.0 21:35:01 10° WNW 21:37:52 23° WNW 21:37:52 23° WNW visible
26 Feb 8.5 19:41:02 10° WNW 19:51:04 62° N 19:53:41 38° ENE visible
26 Feb 10.4 21:53:28 10° WNW 21:55:07 16° W 21:55:07 16° W visible
27 Feb 8.1 19:59:33 10° WNW 20:09:24 75° NNE 20:10:58 55° E visible
27 Feb 10.8 22:12:10 10° W 22:12:24 11° W 22:12:24 11° W visible
28 Feb 8.0 20:18:01 10° WNW 20:27:36 87° SSW 20:28:16 75° SE visible
